WD0REW Weather Reports


Display with metric or nautical units.
time (UTC)temp
F
wind
direction
speed
MPH
gust
MPH
rain 1hr
in
rain 24hr
in
rain mn
in
humidity
%
barometer
mb
20260906170758 98 92 2.0 4.0 0.00 0.00 0.00 40 1017.1
20260906170254 98 214 2.0 3.0 0.00 0.00 0.00 38 1017.0
20260906165750 98 66 0.0 4.0 0.00 0.00 0.00 42 1017.1
20260906165250 98 7 4.0 7.0 0.00 0.00 0.00 41 1017.0
20260906164749 98 359 2.0 3.0 0.00 0.00 0.00 41 1017.2
20260906164244 98 1 4.0 4.0 0.00 0.00 0.00 41 1017.1
20260906163740 98 163 2.0 3.0 0.00 0.00 0.00 42 1017.1
20260906163236 97 82 1.0 2.0 0.00 0.00 0.00 42 1017.2
20260906162733 96 73 1.0 3.0 0.00 0.00 0.00 43 1017.6
20260906162227 97 173 4.0 6.0 0.00 0.00 0.00 43 1017.3
20260906161722 97 98 1.0 3.0 0.00 0.00 0.00 42 1017.3
20260906161222 97 86 1.0 2.0 0.00 0.00 0.00 42 1017.3
20260906160720 97 112 2.0 3.0 0.00 0.00 0.00 42 1017.3
20260906160220 96 16 1.0 2.0 0.00 0.00 0.00 43 1017.2
20260906155717 95 92 0.0 1.0 0.00 0.00 0.00 46 1017.3
20260906155213 96 87 1.0 3.0 0.00 0.00 0.00 43 1017.2
20260906154708 96 89 0.0 2.0 0.00 0.00 0.00 42 1017.1
20260906154209 95 116 1.0 3.0 0.00 0.00 0.00 45 1017.3
20260906153707 95 123 1.0 2.0 0.00 0.00 0.00 47 1017.3
20260906153202 95 101 0.0 2.0 0.00 0.00 0.00 46 1017.2
20260906152656 95 97 1.0 3.0 0.00 0.00 0.00 44 1017.2
20260906152150 95 83 0.0 1.0 0.00 0.00 0.00 45 1017.3
20260906151645 94 92 1.0 2.0 0.00 0.00 0.00 45 1017.2
20260906151141 93 87 1.0 2.0 0.00 0.00 0.00 45 1017.3
20260906150636 94 102 0.0 1.0 0.00 0.00 0.00 46 1016.9
20260906150132 94 80 0.0 1.0 0.00 0.00 0.00 45 1017.1
20260906145630 93 78 0.0 1.0 0.00 0.00 0.00 49 1017.1
20260906145125 93 81 1.0 1.0 0.00 0.00 0.00 49 1017.2
20260906144620 93 94 0.0 2.0 0.00 0.00 0.00 50 1017.1
20260906144115 92 65 0.0 1.0 0.00 0.00 0.00 54 1017.2
20260906143615 91 133 0.0 1.0 0.00 0.00 0.00 54 1017.1
20260906143112 91 135 1.0 2.0 0.00 0.00 0.00 53 1017.1
20260906142610 91 102 0.0 1.0 0.00 0.00 0.00 55 1017.0
20260906142106 90 97 0.0 1.0 0.00 0.00 0.00 54 1017.2
20260906141605 90 88 1.0 1.0 0.00 0.00 0.00 54 1017.1
20260906141101 89 87 0.0 1.0 0.00 0.00 0.00 56 1017.3
20260906140600 87 87 0.0 1.0 0.00 0.00 0.00 57 1017.2
20260906140100 87 73 0.0 1.0 0.00 0.00 0.00 59 1017.2
20260906135557 86 130 2.0 2.0 0.00 0.00 0.00 58 1017.2
20260906135053 86 114 1.0 1.0 0.00 0.00 0.00 61 1017.1
20260906134548 85 118 1.0 2.0 0.00 0.00 0.00 63 1017.0
20260906134043 84 93 1.0 1.0 0.00 0.00 0.00 64 1017.1
20260906133539 84 85 0.0 1.0 0.00 0.00 0.00 65 1016.9
20260906133034 83 92 1.0 2.0 0.00 0.00 0.00 65 1017.0
20260906132529 82 92 0.0 1.0 0.00 0.00 0.00 68 1016.8
20260906132025 80 87 0.0 1.0 0.00 0.00 0.00 69 1017.1
20260906131520 79 77 0.0 0.0 0.00 0.00 0.00 75 1016.9
20260906131015 78 71 0.0 0.0 0.00 0.00 0.00 77 1016.7
20260906130515 77 71 0.0 0.0 0.00 0.00 0.00 78 1017.0
20260906130010 77 71 0.0 0.0 0.00 0.00 0.00 79 1016.8
20260906125507 75 71 0.0 0.0 0.00 0.00 0.00 81 1016.7
20260906125007 74 71 0.0 0.0 0.00 0.00 0.00 83 1016.6
20260906124503 74 71 0.0 0.0 0.00 0.00 0.00 83 1016.6
20260906123957 73 86 0.0 0.0 0.00 0.00 0.00 85 1016.7
20260906123456 73 87 0.0 0.0 0.00 0.00 0.00 85 1016.5
20260906122956 73 87 0.0 0.0 0.00 0.00 0.00 86 1016.6
20260906122451 72 87 0.0 0.0 0.00 0.00 0.00 87 1016.5
20260906121948 72 87 0.0 0.0 0.00 0.00 0.00 86 1016.4
20260906121444 72 87 0.0 0.0 0.00 0.00 0.00 87 1016.2
20260906120940 72 87 0.0 0.0 0.00 0.00 0.00 87 1016.2
20260906120435 72 87 0.0 0.0 0.00 0.00 0.00 86 1016.2
20260906115931 72 87 0.0 0.0 0.00 0.00 0.00 86 1016.0
20260906115427 72 87 0.0 0.0 0.00 0.00 0.00 86 1016.0
20260906114927 72 87 0.0 0.0 0.00 0.00 0.00 86 1015.9
20260906114427 72 87 0.0 0.0 0.00 0.00 0.00 85 1016.0
20260906113923 72 87 0.0 0.0 0.00 0.00 0.00 85 1015.8
20260906113421 72 87 0.0 0.0 0.00 0.00 0.00 85 1016.0
20260906112917 73 87 0.0 0.0 0.00 0.00 0.00 85 1015.8
20260906112412 73 87 0.0 0.0 0.00 0.00 0.00 85 1015.9
20260906111908 73 87 0.0 0.0 0.00 0.00 0.00 84 1015.9
20260906111407 73 87 0.0 0.0 0.00 0.00 0.00 85 1015.7
20260906110902 72 87 0.0 0.0 0.00 0.00 0.00 85 1015.7
20260906110358 72 87 0.0 0.0 0.00 0.00 0.00 85 1015.8
20260906105857 72 87 0.0 0.0 0.00 0.00 0.00 85 1015.9
20260906105353 72 87 0.0 0.0 0.00 0.00 0.00 85 1015.7
20260906104848 72 87 0.0 0.0 0.00 0.00 0.00 85 1015.8
20260906104347 73 87 0.0 0.0 0.00 0.00 0.00 85 1015.8
20260906103845 73 87 0.0 0.0 0.00 0.00 0.00 84 1015.6
20260906103344 73 87 0.0 0.0 0.00 0.00 0.00 84 1015.6
20260906102840 73 87 0.0 0.0 0.00 0.00 0.00 84 1015.9
20260906102338 73 87 0.0 0.0 0.00 0.00 0.00 83 1015.8
20260906101834 73 87 0.0 0.0 0.00 0.00 0.00 83 1015.6
20260906101329 73 87 0.0 0.0 0.00 0.00 0.00 83 1015.7
20260906100825 73 87 0.0 0.0 0.00 0.00 0.00 83 1015.7
20260906100324 73 87 0.0 0.0 0.00 0.00 0.00 82 1015.5
20260906095819 73 87 0.0 0.0 0.00 0.00 0.00 82 1015.6
20260906095314 74 87 0.0 0.0 0.00 0.00 0.00 81 1015.5
20260906094814 74 87 0.0 0.0 0.00 0.00 0.00 81 1015.5
20260906094309 74 87 0.0 0.0 0.00 0.00 0.00 81 1015.6
20260906093805 74 87 0.0 0.0 0.00 0.00 0.00 81 1015.7
20260906093301 74 87 0.0 0.0 0.00 0.00 0.00 81 1015.6
20260906092756 74 87 0.0 0.0 0.00 0.00 0.00 80 1015.6
20260906092256 74 87 0.0 0.0 0.00 0.00 0.00 80 1015.4
20260906091752 74 87 0.0 0.0 0.00 0.00 0.00 80 1015.5
20260906091248 74 87 0.0 0.0 0.00 0.00 0.00 80 1015.3
20260906090744 74 87 0.0 0.0 0.00 0.00 0.00 79 1015.4
20260906090243 74 87 0.0 0.0 0.00 0.00 0.00 79 1015.3
20260906085742 75 87 0.0 0.0 0.00 0.00 0.00 79 1015.5
20260906085242 75 87 0.0 0.0 0.00 0.00 0.00 78 1015.4
20260906084737 75 87 0.0 0.0 0.00 0.00 0.00 78 1015.2
20260906084236 75 87 0.0 0.0 0.00 0.00 0.00 78 1015.3
20260906083731 75 87 0.0 0.0 0.00 0.00 0.00 77 1015.2
20260906083227 75 87 0.0 0.0 0.00 0.00 0.00 77 1015.3
20260906082722 75 87 0.0 0.0 0.00 0.00 0.00 76 1015.5
20260906082217 75 87 0.0 0.0 0.00 0.00 0.00 76 1015.3
20260906081713 76 87 0.0 0.0 0.00 0.00 0.00 76 1015.3
20260906081208 76 87 0.0 0.0 0.00 0.00 0.00 75 1015.2
20260906080704 76 87 0.0 0.0 0.00 0.00 0.00 75 1015.3
20260906080200 76 87 0.0 0.0 0.00 0.00 0.00 74 1015.3
20260906075700 76 87 0.0 0.0 0.00 0.00 0.00 74 1015.3
20260906075154 77 87 0.0 0.0 0.00 0.00 0.00 74 1015.3
20260906074650 77 87 0.0 0.0 0.00 0.00 0.00 73 1015.2
20260906074149 77 87 0.0 0.0 0.00 0.00 0.00 73 1015.3
20260906073644 77 87 0.0 0.0 0.00 0.00 0.00 72 1015.1
20260906073139 77 87 0.0 0.0 0.00 0.00 0.00 72 1015.3
20260906072634 78 87 0.0 0.0 0.00 0.00 0.00 71 1015.3
20260906072130 78 87 0.0 0.0 0.00 0.00 0.00 70 1015.3
20260906071626 77 87 0.0 0.0 0.00 0.00 0.00 71 1015.5
20260906071121 77 87 0.0 0.0 0.00 0.00 0.00 71 1015.3
20260906070617 78 87 0.0 0.0 0.00 0.00 0.00 72 1015.4
20260906070113 78 87 0.0 0.0 0.00 0.00 0.00 71 1015.4
20260906065612 78 87 0.0 0.0 0.00 0.00 0.00 71 1015.4
20260906065108 78 87 0.0 0.0 0.00 0.00 0.00 70 1015.5
20260906064603 78 87 0.0 0.0 0.00 0.00 0.00 70 1015.5
20260906064058 78 87 0.0 0.0 0.00 0.00 0.00 70 1015.5
20260906063553 78 87 0.0 0.0 0.00 0.00 0.00 69 1015.6
20260906063050 79 87 0.0 0.0 0.00 0.00 0.00 68 1015.7
20260906062545 79 87 0.0 0.0 0.00 0.00 0.00 69 1015.8
20260906062044 79 87 0.0 0.0 0.00 0.00 0.00 69 1015.7
20260906061541 79 88 0.0 1.0 0.00 0.00 0.00 68 1015.7
20260906061039 79 87 0.0 0.0 0.00 0.00 0.00 67 1015.6
20260906060536 79 87 0.0 0.0 0.00 0.00 0.00 68 1015.6
20260906060033 80 87 0.0 0.0 0.00 0.00 0.00 68 1015.6
20260906055529 80 87 0.0 0.0 0.00 0.00 0.00 67 1015.6
20260906055024 80 87 0.0 0.0 0.00 0.00 0.00 66 1015.6
20260906054524 80 87 0.0 0.0 0.00 0.00 0.00 67 1015.6
20260906054019 80 87 0.0 0.0 0.00 0.00 0.00 66 1015.5
20260906053516 80 87 0.0 0.0 0.00 0.00 0.00 66 1015.4
20260906053011 80 88 0.0 0.0 0.00 0.00 0.00 66 1015.5
20260906052507 80 87 0.0 0.0 0.00 0.00 0.00 66 1015.4
20260906052004 80 87 0.0 0.0 0.00 0.00 0.00 66 1015.3
20260906051459 80 87 0.0 0.0 0.00 0.00 0.00 65 1015.3
20260906050954 80 87 0.0 0.0 0.00 0.00 0.00 65 1015.2
20260906050454 80 87 0.0 0.0 0.00 0.00 0.00 66 1015.3
20260906045953 80 87 0.0 0.0 0.00 0.00 0.00 66 1015.3
20260906045452 80 88 1.0 1.0 0.00 0.00 0.00 68 1015.3
20260906044948 80 79 0.0 0.0 0.00 0.00 0.00 68 1015.3
20260906044443 80 79 0.0 0.0 0.00 0.00 0.00 68 1015.3
20260906043939 80 79 0.0 0.0 0.00 0.00 0.00 67 1015.4
20260906043435 80 79 0.0 0.0 0.00 0.00 0.00 66 1015.5
20260906042930 80 79 0.0 0.0 0.00 0.00 0.00 67 1015.4
20260906042429 80 79 0.0 0.0 0.00 0.00 0.00 66 1015.6
20260906041924 80 79 0.0 0.0 0.00 0.00 0.00 65 1015.5
20260906041421 80 79 0.0 0.0 0.00 0.00 0.00 65 1015.3
20260906040920 80 79 0.0 0.0 0.00 0.00 0.00 66 1015.5
20260906040415 80 79 0.0 0.0 0.00 0.00 0.00 65 1015.3
20260906035911 80 79 0.0 0.0 0.00 0.00 0.00 66 1015.5
20260906035407 81 79 0.0 0.0 0.00 0.00 0.00 66 1015.4
20260906034902 81 79 0.0 0.0 0.00 0.00 0.00 66 1015.4
20260906034401 81 79 0.0 0.0 0.00 0.00 0.00 65 1015.5
20260906033857 81 79 0.0 0.0 0.00 0.00 0.00 65 1015.5
20260906033357 81 79 0.0 0.0 0.00 0.00 0.00 64 1015.3
20260906032853 82 79 0.0 0.0 0.00 0.00 0.00 64 1015.5
20260906032349 82 79 0.0 0.0 0.00 0.00 0.00 63 1015.2
20260906031844 82 79 0.0 0.0 0.00 0.00 0.00 62 1015.2
20260906031339 82 80 0.0 0.0 0.00 0.00 0.00 62 1015.3
20260906030839 83 79 0.0 0.0 0.00 0.00 0.00 61 1015.2
20260906030335 83 80 0.0 0.0 0.00 0.00 0.00 61 1015.3
20260906025835 83 80 0.0 0.0 0.00 0.00 0.00 60 1015.3
20260906025329 84 58 0.0 0.0 0.00 0.00 0.00 60 1015.2
20260906024828 84 58 0.0 0.0 0.00 0.00 0.00 59 1015.2
20260906024327 84 58 0.0 0.0 0.00 0.00 0.00 58 1014.9
20260906023823 85 58 0.0 0.0 0.00 0.00 0.00 57 1014.9
20260906023318 85 95 1.0 1.0 0.00 0.00 0.00 57 1014.7
20260906022814 85 91 0.0 2.0 0.00 0.00 0.00 56 1015.0
20260906022309 86 117 0.0 1.0 0.00 0.00 0.00 55 1015.0
20260906021805 86 102 1.0 1.0 0.00 0.00 0.00 55 1014.9
20260906021304 86 97 1.0 2.0 0.00 0.00 0.00 55 1014.9
20260906020759 86 113 1.0 1.0 0.00 0.00 0.00 54 1014.6
20260906020258 87 113 1.0 1.0 0.00 0.00 0.00 54 1014.5
20260906015758 87 51 1.0 2.0 0.00 0.00 0.00 53 1014.4
20260906015257 87 84 1.0 2.0 0.00 0.00 0.00 53 1014.5
20260906014751 87 54 0.0 1.0 0.00 0.00 0.00 52 1014.3
20260906014247 88 97 0.0 1.0 0.00 0.00 0.00 51 1014.2
20260906013743 88 99 0.0 1.0 0.00 0.00 0.00 51 1014.1
20260906013243 89 88 1.0 2.0 0.00 0.00 0.00 50 1014.2
20260906012739 89 90 0.0 0.0 0.00 0.00 0.00 49 1014.1
20260906012234 89 85 0.0 0.0 0.00 0.00 0.00 48 1014.2
20260906011729 89 100 1.0 1.0 0.00 0.00 0.00 47 1014.1
20260906011228 90 85 1.0 2.0 0.00 0.00 0.00 47 1014.3
20260906010724 89 77 0.0 2.0 0.00 0.00 0.00 48 1014.1
20260906010220 89 92 1.0 1.0 0.00 0.00 0.00 50 1014.0
20260906005715 90 44 0.0 0.0 0.00 0.00 0.00 50 1013.8
20260906005214 90 44 0.0 0.0 0.00 0.00 0.00 48 1013.8
20260906004713 91 44 0.0 0.0 0.00 0.00 0.00 47 1013.9
20260906004209 91 44 0.0 0.0 0.00 0.00 0.00 46 1013.9
20260906003704 91 44 0.0 0.0 0.00 0.00 0.00 46 1013.9
20260906003200 92 44 0.0 0.0 0.00 0.00 0.00 45 1013.8
20260906002659 92 44 0.0 1.0 0.00 0.00 0.00 45 1013.9
20260906002154 93 51 0.0 0.0 0.00 0.00 0.00 44 1014.0
20260906001650 93 51 0.0 0.0 0.00 0.00 0.00 44 1014.1
20260906001149 93 51 0.0 1.0 0.00 0.00 0.00 43 1013.9
20260906000645 94 79 1.0 2.0 0.00 0.00 0.00 42 1013.8
20260906000140 94 100 0.0 1.0 0.00 0.00 0.00 41 1014.0
20260905235639 94 49 0.0 2.0 0.00 0.00 0.00 41 1014.0
20260905235134 93 3 2.0 4.0 0.00 0.00 0.00 41 1014.0
20260905234630 94 121 0.0 0.0 0.00 0.00 0.00 40 1014.0
20260905234125 94 121 0.0 0.0 0.00 0.00 0.00 40 1013.7
20260905233620 95 121 0.0 0.0 0.00 0.00 0.00 39 1013.7
20260905233120 96 121 0.0 0.0 0.00 0.00 0.00 36 1013.6
20260905232616 96 121 0.0 0.0 0.00 0.00 0.00 35 1013.9
20260905232112 96 121 0.0 1.0 0.00 0.00 0.00 34 1014.0
20260905231612 97 122 0.0 1.0 0.00 0.00 0.00 34 1013.8
20260905231108 97 123 1.0 2.0 0.00 0.00 0.00 33 1013.7
20260905230603 98 47 1.0 1.0 0.00 0.00 0.00 32 1013.7
20260905225600 98 79 0.0 0.0 0.00 0.00 0.00 31 1013.9
20260905225056 98 69 0.0 1.0 0.00 0.00 0.00 32 1013.7
20260905224555 98 30 1.0 3.0 0.00 0.00 0.00 32 1013.8
20260905224055 98 27 2.0 2.0 0.00 0.00 0.00 32 1013.7
20260905223553 98 0 3.0 4.0 0.00 0.00 0.00 32 1013.7
20260905223049 98 9 2.0 4.0 0.00 0.00 0.00 32 1013.9
20260905222548 98 82 2.0 2.0 0.00 0.00 0.00 33 1013.7
20260905222044 98 73 0.0 2.0 0.00 0.00 0.00 33 1013.8
20260905221540 98 106 1.0 3.0 0.00 0.00 0.00 32 1013.8
20260905221036 98 113 1.0 2.0 0.00 0.00 0.00 34 1013.8
20260905220531 98 110 1.0 2.0 0.00 0.00 0.00 34 1014.0
20260905220027 98 250 2.0 2.0 0.00 0.00 0.00 33 1013.7
20260905215526 98 131 2.0 2.0 0.00 0.00 0.00 33 1013.9
20260905215023 98 151 2.0 3.0 0.00 0.00 0.00 33 1014.0
20260905214518 98 135 1.0 3.0 0.00 0.00 0.00 33 1014.2
20260905214013 98 150 2.0 3.0 0.00 0.00 0.00 33 1014.0
20260905213509 99 89 1.0 2.0 0.00 0.00 0.00 33 1014.0
20260905213004 99 80 0.0 1.0 0.00 0.00 0.00 32 1014.3
20260905212459 99 47 0.0 1.0 0.00 0.00 0.00 33 1014.1
20260905211958 99 66 0.0 4.0 0.00 0.00 0.00 33 1014.3
20260905211454 99 77 0.0 2.0 0.00 0.00 0.00 34 1014.3
20260905210949 99 86 1.0 2.0 0.00 0.00 0.00 34 1014.3
20260905210445 99 87 1.0 2.0 0.00 0.00 0.00 34 1014.3
20260905205944 99 74 1.0 2.0 0.00 0.00 0.00 36 1014.6
20260905205439 100 102 1.0 1.0 0.00 0.00 0.00 35 1014.7
20260905204938 101 45 1.0 4.0 0.00 0.00 0.00 33 1014.7
20260905204434 100 132 2.0 2.0 0.00 0.00 0.00 36 1014.6
20260905203932 100 106 1.0 1.0 0.00 0.00 0.00 38 1014.9
20260905203428 99 96 1.0 1.0 0.00 0.00 0.00 35 1014.9
20260905202924 100 120 1.0 3.0 0.00 0.00 0.00 35 1015.2
20260905202419 100 89 1.0 3.0 0.00 0.00 0.00 36 1014.9
20260905201914 100 105 2.0 4.0 0.00 0.00 0.00 35 1015.2
20260905201410 100 350 4.0 7.0 0.00 0.00 0.00 36 1015.1
20260905200909 99 115 1.0 3.0 0.00 0.00 0.00 37 1015.1
20260905200405 100 194 2.0 7.0 0.00 0.00 0.00 37 1015.1
20260905195903 99 29 0.0 2.0 0.00 0.00 0.00 36 1015.4
20260905195359 99 83 0.0 2.0 0.00 0.00 0.00 36 1015.5
20260905194854 99 90 0.0 2.0 0.00 0.00 0.00 37 1015.7
20260905194354 98 68 0.0 2.0 0.00 0.00 0.00 38 1015.6
20260905193854 96 107 2.0 2.0 0.00 0.00 0.00 41 1015.8
20260905193348 96 92 1.0 2.0 0.00 0.00 0.00 42 1015.8
20260905192844 96 62 0.0 1.0 0.00 0.00 0.00 40 1015.4
20260905192340 97 75 1.0 1.0 0.00 0.00 0.00 40 1015.7
20260905191839 98 46 1.0 4.0 0.00 0.00 0.00 38 1015.7
20260905191338 98 0 4.0 4.0 0.00 0.00 0.00 39 1015.7
20260905190837 98 162 4.0 6.0 0.00 0.00 0.00 39 1016.2
20260905190336 97 95 1.0 2.0 0.00 0.00 0.00 41 1016.2
20260905185835 98 41 1.0 2.0 0.00 0.00 0.00 38 1016.2
20260905185331 99 11 2.0 4.0 0.00 0.00 0.00 37 1016.4
20260905184830 101 322 4.0 6.0 0.00 0.00 0.00 35 1016.3
20260905184329 100 71 1.0 1.0 0.00 0.00 0.00 37 1016.6
20260905183828 100 353 3.0 4.0 0.00 0.00 0.00 36 1016.5
20260905183323 100 129 4.0 4.0 0.00 0.00 0.00 38 1016.5
20260905182818 100 71 1.0 3.0 0.00 0.00 0.00 40 1016.6
20260905182318 99 218 2.0 3.0 0.00 0.00 0.00 38 1016.7
20260905181813 98 194 2.0 3.0 0.00 0.00 0.00 40 1016.7
20260905181312 98 24 1.0 1.0 0.00 0.00 0.00 40 1016.9
20260905180812 98 117 2.0 3.0 0.00 0.00 0.00 41 1017.2
20260905180307 99 101 2.0 3.0 0.00 0.00 0.00 40 1017.1
20260905175802 99 109 1.0 3.0 0.00 0.00 0.00 42 1016.9
20260905175256 97 89 1.0 2.0 0.00 0.00 0.00 44 1017.1
20260905174752 96 32 1.0 1.0 0.00 0.00 0.00 42 1017.0
20260905174247 98 11 1.0 2.0 0.00 0.00 0.00 41 1017.3
20260905173743 97 91 1.0 2.0 0.00 0.00 0.00 40 1017.3
20260905173239 98 351 2.0 6.0 0.00 0.00 0.00 40 1017.2
20260905172733 98 18 1.0 6.0 0.00 0.00 0.00 41 1017.3
20260905172232 98 28 1.0 4.0 0.00 0.00 0.00 41 1017.1
20260905171728 98 37 1.0 2.0 0.00 0.00 0.00 41 1017.6
20260905171224 97 30 2.0 2.0 0.00 0.00 0.00 42 1017.8